• In Uzbekistan
  • List of Countries
  • For 7 days
  • Water Temperature
  • Satellite Maps
  • Weather Map
  • Weather Widgets
  • user-avatar
    Login

    Hourly Weather Sworowo

    Today, 24 March, Sunday

    Time Temperature Precipitation Wind Pressure Humidity
    00:00 +8°C° 0 mm 3 mps 761 mmHg 86%
    01:00 +7°C° 0 mm 2 mps 761 mmHg 87%
    02:00 +6°C° 0 mm 2 mps 761 mmHg 88%
    03:00 +6°C° 0 mm 2 mps 761 mmHg 89%
    04:00 +5°C° 0 mm 2 mps 761 mmHg 90%
    05:00 +5°C° 0 mm 2 mps 761 mmHg 89%
    06:00 +5°C° 0 mm 2 mps 761 mmHg 87%
    07:00 +5°C° 0 mm 2 mps 761 mmHg 84%
    08:00 +6°C° 0 mm 2 mps 761 mmHg 73%
    09:00 +9°C° 0 mm 1 mps 761 mmHg 63%
    10:00 +10°C° 0 mm 1 mps 761 mmHg 52%
    11:00 +11°C° 0 mm 1 mps 760 mmHg 48%
    12:00 +12°C° 0 mm 1 mps 760 mmHg 44%
    13:00 +13°C° 0 mm 1 mps 759 mmHg 40%
    14:00 +13°C° 0 mm 1 mps 758 mmHg 40%
    15:00 +13°C° 0 mm 1 mps 758 mmHg 40%
    16:00 +13°C° 0 mm 1 mps 757 mmHg 40%
    17:00 +12°C° 0 mm 1 mps 757 mmHg 43%
    18:00 +11°C° 0 mm 1 mps 756 mmHg 47%
    19:00 +10°C° 0 mm 1 mps 756 mmHg 51%
    20:00 +9°C° 0 mm 1 mps 756 mmHg 52%
    21:00 +8°C° 0 mm 0 mps 756 mmHg 54%
    22:00 +7°C° 0 mm 0 mps 755 mmHg 55%
    23:00 +7°C° 0 mm 0 mps 755 mmHg 55%

    Tomorrow, 25 March, Monday

    Time Temperature Precipitation Wind Pressure Humidity
    00:00 +7°C° 0 mm 0 mps 754 mmHg 56%
    01:00 +8°C° 0 mm 1 mps 754 mmHg 56%
    02:00 +7°C° 0 mm 1 mps 753 mmHg 58%
    03:00 +6°C° 0 mm 2 mps 753 mmHg 61%
    04:00 +5°C° 0 mm 2 mps 752 mmHg 63%
    05:00 +4°C° 0 mm 3 mps 752 mmHg 65%
    06:00 +4°C° 0 mm 3 mps 752 mmHg 68%
    07:00 +3°C° 0 mm 4 mps 751 mmHg 71%
    08:00 +5°C° 0 mm 4 mps 751 mmHg 65%
    09:00 +6°C° 0 mm 5 mps 751 mmHg 60%
    10:00 +7°C° 0 mm 6 mps 750 mmHg 55%
    11:00 +5°C° 0.3 mm 6 mps 750 mmHg 59%
    12:00 +5°C° 0.3 mm 6 mps 750 mmHg 64%
    13:00 +4°C° 0.3 mm 7 mps 750 mmHg 68%
    14:00 +5°C° 0.1 mm 6 mps 750 mmHg 63%
    15:00 +5°C° 0.1 mm 6 mps 750 mmHg 59%
    16:00 +7°C° 0.1 mm 6 mps 751 mmHg 54%
    17:00 +6°C° 0 mm 5 mps 751 mmHg 59%
    18:00 +5°C° 0 mm 4 mps 752 mmHg 64%
    19:00 +3°C° 0 mm 3 mps 753 mmHg 69%
    20:00 +3°C° 0 mm 3 mps 753 mmHg 72%
    21:00 +2°C° 0 mm 3 mps 754 mmHg 75%
    22:00 +2°C° 0 mm 3 mps 755 mmHg 78%
    23:00 +2°C° 0 mm 3 mps 756 mmHg 81%

    Day after tomorrow, 26 March, Tuesday

    Time Temperature Precipitation Wind Pressure Humidity
    00:00 +1°C° 0 mm 3 mps 756 mmHg 84%
    01:00 +1°C° 0 mm 3 mps 757 mmHg 88%
    02:00 +1°C° 0 mm 3 mps 757 mmHg 90%
    03:00 0°C° 0 mm 3 mps 757 mmHg 93%
    04:00 0°C° 0 mm 3 mps 758 mmHg 96%
    05:00 0°C° 0 mm 3 mps 758 mmHg 95%
    06:00 0°C° 0 mm 3 mps 758 mmHg 93%
    07:00 -1°C° 0 mm 4 mps 759 mmHg 91%
    08:00 +1°C° 0 mm 5 mps 758 mmHg 83%
    09:00 +3°C° 0 mm 6 mps 758 mmHg 74%
    10:00 +5°C° 0 mm 7 mps 758 mmHg 66%
    11:00 +6°C° 0 mm 7 mps 758 mmHg 62%
    12:00 +6°C° 0 mm 8 mps 758 mmHg 58%
    13:00 +7°C° 0 mm 9 mps 758 mmHg 54%
    14:00 +6°C° 0.1 mm 8 mps 758 mmHg 58%
    15:00 +5°C° 0.1 mm 8 mps 758 mmHg 62%
    16:00 +4°C° 0.1 mm 8 mps 758 mmHg 66%
    17:00 +4°C° 0 mm 7 mps 758 mmHg 68%
    18:00 +3°C° 0 mm 6 mps 759 mmHg 70%
    19:00 +3°C° 0 mm 5 mps 759 mmHg 72%
    20:00 +4°C° 0 mm 4 mps 759 mmHg 75%
    21:00 +3°C° 0 mm 4 mps 760 mmHg 78%
    22:00 +3°C° 0 mm 3 mps 760 mmHg 81%
    23:00 +2°C° 0 mm 3 mps 761 mmHg 84%

    27 March, Wednesday

    Time Temperature Precipitation Wind Pressure Humidity
    00:00 +2°C° 0 mm 2 mps 761 mmHg 87%
    01:00 +2°C° 0 mm 2 mps 761 mmHg 90%
    02:00 +1°C° 0 mm 2 mps 761 mmHg 91%
    03:00 +1°C° 0 mm 2 mps 761 mmHg 92%
    04:00 +1°C° 0 mm 2 mps 761 mmHg 93%
    05:00 +1°C° 0 mm 2 mps 761 mmHg 93%
    06:00 +2°C° 0 mm 2 mps 761 mmHg 92%
    07:00 +2°C° 0 mm 2 mps 762 mmHg 91%
    08:00 +3°C° 0 mm 3 mps 762 mmHg 84%
    09:00 +5°C° 0 mm 3 mps 762 mmHg 78%
    10:00 +7°C° 0 mm 3 mps 762 mmHg 72%
    11:00 +7°C° 0 mm 4 mps 762 mmHg 70%
    12:00 +7°C° 0 mm 4 mps 762 mmHg 69%
    13:00 +8°C° 0 mm 4 mps 762 mmHg 68%
    14:00 +8°C° 0 mm 5 mps 761 mmHg 65%
    15:00 +8°C° 0 mm 5 mps 761 mmHg 63%
    16:00 +9°C° 0 mm 5 mps 761 mmHg 60%
    17:00 +8°C° 0 mm 4 mps 761 mmHg 65%
    18:00 +7°C° 0 mm 4 mps 761 mmHg 69%
    19:00 +7°C° 0 mm 3 mps 762 mmHg 73%
    20:00 +7°C° 0.1 mm 3 mps 762 mmHg 77%
    21:00 +7°C° 0.1 mm 3 mps 762 mmHg 82%
    22:00 +5°C° 0.1 mm 3 mps 762 mmHg 86%
    23:00 +5°C° 0.2 mm 3 mps 762 mmHg 88%

    28 March, Thursday

    Time Temperature Precipitation Wind Pressure Humidity
    00:00 +6°C° 0.2 mm 2 mps 762 mmHg 90%
    01:00 +6°C° 0.2 mm 2 mps 762 mmHg 92%
    02:00 +6°C° 0.1 mm 2 mps 762 mmHg 93%
    03:00 +6°C° 0.1 mm 2 mps 762 mmHg 94%
    04:00 +6°C° 0.1 mm 2 mps 762 mmHg 94%
    05:00 +7°C° 0.1 mm 1 mps 762 mmHg 94%
    06:00 +7°C° 0.1 mm 1 mps 763 mmHg 94%
    07:00 +8°C° 0.1 mm 1 mps 763 mmHg 94%
    08:00 +8°C° 0 mm 1 mps 763 mmHg 90%
    09:00 +9°C° 0 mm 1 mps 764 mmHg 85%
    10:00 +10°C° 0 mm 1 mps 764 mmHg 81%
    11:00 +10°C° 0.1 mm 1 mps 764 mmHg 77%
    12:00 +11°C° 0.1 mm 1 mps 764 mmHg 72%
    13:00 +12°C° 0.1 mm 1 mps 764 mmHg 68%
    14:00 +12°C° 0.1 mm 1 mps 764 mmHg 66%
    15:00 +12°C° 0.1 mm 1 mps 764 mmHg 65%
    16:00 +12°C° 0.1 mm 1 mps 764 mmHg 63%
    17:00 +11°C° 0 mm 1 mps 764 mmHg 68%
    18:00 +10°C° 0 mm 1 mps 765 mmHg 73%
    19:00 +8°C° 0 mm 1 mps 765 mmHg 77%
    20:00 +8°C° 0 mm 1 mps 765 mmHg 79%
    21:00 +7°C° 0 mm 1 mps 766 mmHg 81%
    22:00 +7°C° 0 mm 1 mps 766 mmHg 83%
    23:00 +7°C° 0 mm 1 mps 766 mmHg 84%

    29 March, Friday

    Time Temperature Precipitation Wind Pressure Humidity
    00:00 +6°C° 0 mm 1 mps 766 mmHg 86%
    01:00 +6°C° 0 mm 1 mps 766 mmHg 88%
    02:00 +5°C° 0 mm 1 mps 766 mmHg 89%
    03:00 +5°C° 0 mm 1 mps 766 mmHg 90%
    04:00 +5°C° 0 mm 1 mps 766 mmHg 90%
    05:00 +5°C° 0 mm 1 mps 766 mmHg 89%
    06:00 +6°C° 0 mm 1 mps 766 mmHg 87%
    07:00 +6°C° 0 mm 1 mps 766 mmHg 86%
    08:00 +8°C° 0 mm 1 mps 766 mmHg 78%
    09:00 +9°C° 0 mm 2 mps 766 mmHg 70%
    10:00 +10°C° 0 mm 2 mps 766 mmHg 63%
    11:00 +12°C° 0 mm 2 mps 765 mmHg 59%
    12:00 +13°C° 0 mm 2 mps 765 mmHg 55%
    13:00 +14°C° 0 mm 2 mps 765 mmHg 51%
    14:00 +14°C° 0 mm 2 mps 764 mmHg 50%
    15:00 +15°C° 0 mm 2 mps 764 mmHg 49%
    16:00 +15°C° 0 mm 2 mps 763 mmHg 48%
    17:00 +13°C° 0 mm 1 mps 763 mmHg 53%
    18:00 +12°C° 0 mm 1 mps 763 mmHg 58%
    19:00 +9°C° 0 mm 0 mps 763 mmHg 63%
    20:00 +10°C° 0 mm 1 mps 763 mmHg 64%
    21:00 +9°C° 0 mm 1 mps 763 mmHg 65%
    22:00 +9°C° 0 mm 1 mps 763 mmHg 67%
    23:00 +8°C° 0 mm 1 mps 763 mmHg 70%
    Show more